Regional Weather Roundup
Issued by NWS Binghamton, NY

Home | Current Version | Previous Version | Text Only | Print | Product List | Glossary On
Versions: 1 2 3 4 5 6 7 8 9 10 11 12 13 14 15 16 17 18 19 20 21 22 23 24 25 26 27 28 29 30 31 32 33 34 35 36 37 38 39 40 41 42 43 44 45 46 47 48 49 50
000
ASUS41 KBGM 201410
RWRBGM

REGIONAL WEATHER ROUNDUP
NATIONAL WEATHER SERVICE BINGHAMTON NY
900 AM EST SAT JAN 20 2018

Note: "fair" indicates few or no clouds below 12,000 feet with no
significant weather and/or obstructions to visibility.

* = Station(s) that does not report precipitation, such as rain,
snow, etc, also no thunder or fog.

NYZ009-015>018-022>025-036-037-044>046-055>057-062-201500
...Central New York...

CITY           SKY/WX    TMP DP  RH WIND       PRES   REMARKS
Binghamton     FAIR      33  21  61 SW15      29.80R WCI  23
Cortland       FAIR      36  23  60 W6        29.83R WCI  31
Dansville      FAIR      38  22  52 VRB5      29.86R WCI  34
Elmira         FAIR      38  24  57 SW13      29.84R WCI  30
Seneca Falls   SUNNY     39  23  52 W9        29.85R WCI  33
Ithaca         FAIR      37  22  54 W17       29.84R WCI  27
Hornell        SUNNY     36  23  60 SW8G16    29.89R WCI  29
Monticello     FAIR      32  22  66 W12       29.82R WCI  23
Penn Yan       FAIR      38  22  52 W18G26    29.82R WCI  28
Rome           CLOUDY    15  14  95 CALM      29.82R
Sidney         SUNNY     36  21  55 SW8       29.83S WCI  29
Syracuse       PTSUNNY   39  25  57 SW16      29.81R WCI  30
$$

PAZ038>040-043-044-047-048-072-201500
...Northeast Pennsylvania...

CITY           SKY/WX    TMP DP  RH WIND       PRES   REMARKS
Hazleton       FAIR      39  25  56 W12G22    29.90R WCI  32
Scranton       FAIR      38  24  57 SW14      29.88R WCI  30
$$
&&
KEY
WCI = Wind Chill Index
VSB = Visibility
HX  = Heat Index
$$



USA.gov is the U.S. government's official web portal to all federal, state and local government web resources and services.